FW4741 Weather Reports


time (UTC)temp
C
wind
direction
speed
KPH
gust
KPH
rain 1hr
cm
rain 24hr
cm
rain mn
cm
humidity
%
barometer
mb
20260902185102 21 77 3.2 9.7 0.00 0.00 0.00 74 1024.8
20260902184602 21 77 3.2 9.7 0.00 0.00 0.00 74 1024.8
20260902184103 21 77 3.2 9.7 0.00 0.00 0.00 76 1024.8
20260902183603 21 77 3.2 9.7 0.00 0.00 0.00 77 1024.8
20260902183103 21 77 3.2 9.7 0.00 0.00 0.00 77 1024.8
20260902182603 21 77 3.2 9.7 0.00 0.00 0.00 77 1024.8
20260902181603 21 77 3.2 9.7 0.00 0.00 0.00 79 1024.8
20260902181103 21 77 3.2 9.7 0.00 0.00 0.00 78 1024.8
20260902175602 21 77 3.2 9.7 0.00 0.00 0.00 79 1024.9
20260902175103 21 77 3.2 9.7 0.00 0.00 0.00 77 1024.9
20260902174603 21 77 3.2 9.7 0.00 0.00 0.00 79 1024.9
20260902174103 20 77 3.2 9.7 0.00 0.00 0.00 80 1024.9
20260902172602 21 77 3.2 9.7 0.00 0.00 0.00 80 1024.9
20260902172103 21 77 3.2 9.7 0.00 0.00 0.00 81 1024.9
20260902171603 21 77 3.2 9.7 0.00 0.00 0.00 82 1024.9
20260902171103 21 77 3.2 9.7 0.00 0.00 0.00 80 1024.9
20260902165102 22 77 3.2 9.7 0.00 0.00 0.00 62 1024.9
20260902164603 22 77 3.2 9.7 0.00 0.00 0.00 61 1024.8
20260902164102 22 77 3.2 9.7 0.00 0.00 0.00 63 1024.8
20260902163603 22 77 3.2 9.7 0.00 0.00 0.00 63 1024.8
20260902163103 22 77 3.2 9.7 0.00 0.00 0.00 63 1024.7
20260902162602 22 77 3.2 9.7 0.00 0.00 0.00 64 1024.7
20260902162102 22 77 3.2 9.7 0.00 0.00 0.00 66 1024.7
20260902161603 21 77 3.2 9.7 0.00 0.00 0.00 66 1024.7
20260902161103 21 77 3.2 9.7 0.00 0.00 0.00 66 1024.7
20260902160602 21 77 3.2 9.7 0.00 0.00 0.00 66 1024.8
20260902160103 21 77 3.2 9.7 0.00 0.00 0.00 66 1024.8
20260902155603 21 77 3.2 9.7 0.00 0.00 0.00 66 1024.8
20260902155102 22 77 3.2 9.7 0.00 0.00 0.00 65 1024.8
20260902154603 22 77 3.2 9.7 0.00 0.00 0.00 65 1024.7
20260902154103 22 77 3.2 9.7 0.00 0.00 0.00 66 1024.8
20260902153603 22 77 3.2 9.7 0.00 0.00 0.00 66 1024.7
20260902153103 21 77 3.2 9.7 0.00 0.00 0.00 66 1024.7
20260902152602 21 77 3.2 9.7 0.00 0.00 0.00 67 1024.7
20260902152102 21 77 3.2 9.7 0.00 0.00 0.00 68 1024.7
20260902151103 20 77 3.2 9.7 0.00 0.00 0.00 70 1024.7
20260902150603 20 77 3.2 9.7 0.00 0.00 0.00 71 1024.7
20260902145603 19 77 3.2 9.7 0.00 0.00 0.00 74 1024.6
20260902145102 19 77 3.2 9.7 0.00 0.00 0.00 76 1024.7
20260902144603 18 77 3.2 9.7 0.00 0.00 0.00 77 1024.8
20260902144102 18 77 3.2 9.7 0.00 0.00 0.00 76 1024.8
20260902143602 18 77 3.2 9.7 0.00 0.00 0.00 77 1024.8
20260902142605 18 77 3.2 9.7 0.00 0.00 0.00 78 1024.7
20260902142103 18 77 3.2 9.7 0.00 0.00 0.00 79 1024.7
20260902141102 18 77 3.2 9.7 0.00 0.00 0.00 80 1024.7
20260902134602 17 77 3.2 9.7 0.00 0.00 0.00 85 1024.8
20260902134102 16 77 3.2 9.7 0.00 0.00 0.00 85 1024.8
20260902133102 16 77 3.2 9.7 0.00 0.00 0.00 88 1024.8
20260902132603 16 77 3.2 9.7 0.00 0.00 0.00 89 1024.8
20260902132103 15 77 3.2 9.7 0.00 0.00 0.00 90 1024.8
20260902131603 15 77 3.2 9.7 0.00 0.00 0.00 91 1024.8
20260902131102 15 77 3.2 9.7 0.00 0.00 0.00 91 1024.9
20260902130603 15 77 3.2 9.7 0.00 0.00 0.00 92 1024.9
20260902125603 15 77 3.2 9.7 0.00 0.00 0.00 92 1024.9
20260902125102 15 77 3.2 9.7 0.00 0.00 0.00 92 1024.8
20260902124603 15 77 3.2 9.7 0.00 0.00 0.00 93 1024.8
20260902124102 15 77 3.2 9.7 0.00 0.00 0.00 93 1024.9
20260902123603 15 77 3.2 9.7 0.00 0.00 0.00 93 1024.9
20260902123103 15 77 3.2 9.7 0.00 0.00 0.00 93 1025.0
20260902122603 15 77 3.2 9.7 0.00 0.00 0.00 93 1025.0
20260902121603 15 77 3.2 9.7 0.00 0.00 0.00 93 1025.0
20260902121103 15 77 3.2 9.7 0.00 0.00 0.00 93 1025.0
20260902120603 15 77 3.2 9.7 0.00 0.00 0.00 92 1025.0
20260902115603 15 77 3.2 9.7 0.00 0.00 0.00 92 1025.0
20260902115103 16 77 3.2 9.7 0.00 0.00 0.00 91 1025.0
20260902114103 16 77 3.2 9.7 0.00 0.00 0.00 91 1025.0
20260902113602 16 77 3.2 9.7 0.00 0.00 0.00 91 1025.0
20260902113103 16 77 3.2 9.7 0.00 0.00 0.00 91 1025.1
20260902112603 16 77 3.2 9.7 0.00 0.00 0.00 91 1025.0
20260902112102 16 77 3.2 9.7 0.00 0.00 0.00 90 1025.1
20260902111603 16 77 3.2 9.7 0.00 0.00 0.00 89 1025.1
20260902111102 16 77 3.2 9.7 0.00 0.00 0.00 88 1025.0
20260902110602 16 77 3.2 9.7 0.00 0.00 0.00 88 1025.0
20260902105602 16 77 3.2 9.7 0.00 0.00 0.00 87 1024.8
20260902105103 16 77 3.2 9.7 0.00 0.00 0.00 86 1024.7
20260902104103 16 77 3.2 9.7 0.00 0.00 0.00 86 1024.8
20260902103103 16 77 3.2 9.7 0.00 0.00 0.00 86 1024.8
20260902102602 16 77 3.2 9.7 0.00 0.00 0.00 86 1024.8
20260902101602 16 77 3.2 9.7 0.00 0.00 0.00 86 1024.7
20260902101103 16 77 3.2 9.7 0.00 0.00 0.00 85 1024.7
20260902100602 16 77 3.2 9.7 0.00 0.00 0.00 84 1024.7
20260902095603 17 77 3.2 9.7 0.00 0.00 0.00 82 1024.7
20260902095103 17 77 3.2 9.7 0.00 0.00 0.00 80 1024.7
20260902094103 17 77 3.2 9.7 0.00 0.00 0.00 81 1024.7
20260902093603 17 77 3.2 9.7 0.00 0.00 0.00 81 1024.7
20260902093103 17 77 3.2 9.7 0.00 0.00 0.00 81 1024.7
20260902091602 17 77 3.2 9.7 0.00 0.00 0.00 79 1024.8
20260902091103 17 77 3.2 9.7 0.00 0.00 0.00 78 1024.8
20260902090602 17 77 3.2 9.7 0.00 0.00 0.00 78 1024.9
20260902085603 17 77 3.2 9.7 0.00 0.00 0.00 78 1024.9
20260902085102 17 77 3.2 9.7 0.00 0.00 0.00 79 1024.9
20260902084603 17 77 3.2 9.7 0.00 0.00 0.00 79 1024.9
20260902084103 17 77 3.2 9.7 0.00 0.00 0.00 79 1024.9
20260902083602 17 77 3.2 9.7 0.00 0.00 0.00 79 1024.9
20260902083103 17 77 3.2 9.7 0.00 0.00 0.00 79 1024.9
20260902082603 17 77 3.2 9.7 0.00 0.00 0.00 78 1024.9
20260902082102 17 77 3.2 9.7 0.00 0.00 0.00 78 1024.9
20260902081603 17 77 3.2 9.7 0.00 0.00 0.00 78 1024.9
20260902081103 17 77 3.2 9.7 0.00 0.00 0.00 78 1024.9
20260902075603 18 77 3.2 9.7 0.00 0.00 0.00 78 1024.9
20260902075103 18 77 3.2 9.7 0.00 0.00 0.00 78 1024.9
20260902074603 18 77 3.2 9.7 0.00 0.00 0.00 78 1024.9
20260902073603 18 77 3.2 9.7 0.00 0.00 0.00 78 1024.9
20260902073103 18 77 3.2 9.7 0.00 0.00 0.00 78 1025.0
20260902072603 18 77 3.2 9.7 0.00 0.00 0.00 78 1025.0
20260902071603 18 77 3.2 9.7 0.00 0.00 0.00 79 1025.1
20260902071102 18 77 3.2 9.7 0.00 0.00 0.00 78 1025.1
20260902070602 18 77 3.2 9.7 0.00 0.00 0.00 78 1025.1
20260902065603 18 77 3.2 9.7 0.00 0.00 0.00 78 1025.2
20260902065102 18 77 3.2 9.7 0.00 0.00 0.00 78 1025.2
20260902064103 18 77 3.2 9.7 0.00 0.00 0.00 78 1025.3
20260902063602 18 77 3.2 9.7 0.00 0.00 0.00 77 1025.3
20260902063103 18 77 3.2 9.7 0.00 0.00 0.00 78 1025.3
20260902062602 18 77 3.2 9.7 0.00 0.00 0.00 78 1025.3
20260902062103 18 77 3.2 9.7 0.00 0.00 0.00 78 1025.3
20260902061103 18 77 3.2 9.7 0.00 0.00 0.00 77 1025.3
20260902060603 18 77 3.2 9.7 0.00 0.00 0.00 77 1025.3
20260902055603 18 77 3.2 9.7 0.00 0.00 0.00 78 1025.3
20260902055102 18 77 3.2 9.7 0.00 0.00 0.00 78 1025.3
20260902054603 18 77 3.2 9.7 0.00 0.00 0.00 78 1025.3
20260902054103 18 77 3.2 9.7 0.00 0.00 0.00 78 1025.3
20260902053103 18 77 3.2 9.7 0.00 0.00 0.00 81 1025.3
20260902052602 18 77 3.2 9.7 0.00 0.00 0.00 81 1025.4
20260902052103 18 77 3.2 9.7 0.00 0.00 0.00 82 1025.4
20260902051603 18 77 3.2 9.7 0.00 0.00 0.00 82 1025.4
20260902051103 18 77 3.2 9.7 0.00 0.00 0.00 82 1025.4
20260902045603 18 77 3.2 9.7 0.00 0.00 0.00 82 1025.4
20260902044603 18 77 3.2 9.7 0.00 0.00 0.00 83 1025.4
20260902044103 18 77 3.2 9.7 0.00 0.00 0.00 83 1025.4
20260902043603 18 77 3.2 9.7 0.00 0.00 0.00 82 1025.4
20260902043104 18 77 3.2 9.7 0.00 0.00 0.00 82 1025.4
20260902042602 18 77 3.2 9.7 0.00 0.00 0.00 82 1025.3
20260902042102 18 77 3.2 9.7 0.00 0.00 0.00 82 1025.3
20260902041603 18 77 3.2 9.7 0.00 0.00 0.00 83 1025.3
20260902041103 18 77 3.2 9.7 0.00 0.00 0.00 83 1025.3
20260902035603 18 77 3.2 9.7 0.00 0.00 0.00 83 1025.2
20260902035103 18 77 3.2 9.7 0.00 0.00 0.00 83 1025.2
20260902034603 18 77 3.2 9.7 0.00 0.00 0.00 84 1025.2
20260902034102 18 77 3.2 9.7 0.00 0.00 0.00 83 1025.1
20260902033603 18 77 3.2 9.7 0.00 0.00 0.00 83 1025.1
20260902033103 18 77 3.2 9.7 0.00 0.00 0.00 84 1025.1
20260902032602 18 77 3.2 9.7 0.00 0.00 0.00 84 1025.1
20260902032103 18 77 3.2 9.7 0.00 0.00 0.00 83 1025.0
20260902031603 18 77 3.2 9.7 0.00 0.00 0.00 82 1024.9
20260902031103 18 77 3.2 9.7 0.00 0.00 0.00 82 1024.9
20260902030603 18 77 3.2 9.7 0.00 0.00 0.00 82 1024.9
20260902030103 18 77 3.2 9.7 0.00 0.00 0.00 82 1024.8
20260902025604 18 77 3.2 9.7 0.00 0.00 0.00 81 1024.7
20260902025103 18 77 3.2 9.7 0.00 0.00 0.00 81 1024.6
20260902024602 18 77 3.2 9.7 0.00 0.00 0.00 81 1024.6
20260902024103 18 77 3.2 9.7 0.00 0.00 0.00 81 1024.5
20260902023602 18 77 3.2 9.7 0.00 0.00 0.00 81 1024.5
20260902023102 18 77 3.2 9.7 0.00 0.00 0.00 80 1024.4
20260902022603 18 77 3.2 9.7 0.00 0.00 0.00 80 1024.3
20260902022103 18 77 3.2 9.7 0.00 0.00 0.00 80 1024.3
20260902021603 18 77 3.2 9.7 0.00 0.00 0.00 80 1024.3
20260902020603 18 77 3.2 9.7 0.00 0.00 0.00 80 1024.2
20260902015103 19 77 3.2 9.7 0.00 0.00 0.00 79 1024.0
20260902013603 19 77 3.2 9.7 0.00 0.00 0.00 79 1023.9
20260902012102 20 77 3.2 9.7 0.00 0.00 0.00 76 1023.7
20260902011603 20 77 3.2 9.7 0.00 0.00 0.00 76 1023.7
20260902011103 20 77 3.2 9.7 0.00 0.00 0.00 76 1023.7
20260902010602 20 77 3.2 9.7 0.00 0.00 0.00 76 1023.7
20260902005602 20 77 3.2 9.7 0.00 0.00 0.00 76 1023.6
20260902005103 20 77 3.2 9.7 0.00 0.00 0.00 76 1023.5
20260902004603 20 77 3.2 9.7 0.00 0.00 0.00 75 1023.5
20260902004103 20 77 3.2 9.7 0.00 0.00 0.00 75 1023.4
20260902003603 20 77 3.2 9.7 0.00 0.00 0.00 75 1023.4
20260902003103 20 77 3.2 9.7 0.00 0.00 0.00 75 1023.4
20260902001603 20 77 3.2 9.7 0.00 0.00 0.00 76 1023.4
20260902001102 20 77 3.2 9.7 0.00 0.00 0.00 77 1023.3
20260902000602 20 77 3.2 9.7 0.00 0.00 0.00 77 1023.3
20260901235602 20 77 3.2 9.7 0.00 0.00 0.00 75 1023.2
20260901234602 20 77 3.2 9.7 0.00 0.00 0.00 73 1023.2
20260901234102 20 77 3.2 9.7 0.00 0.00 0.00 72 1023.2
20260901233603 20 77 3.2 9.7 0.00 0.00 0.00 72 1023.2
20260901233103 20 77 3.2 9.7 0.00 0.00 0.00 71 1023.2
20260901232603 21 77 3.2 9.7 0.00 0.00 0.00 71 1023.2
20260901232103 21 77 3.2 9.7 0.00 0.00 0.00 72 1023.1
20260901231604 21 77 3.2 9.7 0.00 0.00 0.00 72 1023.1
20260901231102 21 77 3.2 9.7 0.00 0.00 0.00 72 1023.1
20260901230602 21 77 3.2 9.7 0.00 0.00 0.00 72 1023.1
20260901225603 21 77 3.2 9.7 0.00 0.00 0.00 73 1023.1
20260901225102 21 77 3.2 9.7 0.00 0.00 0.00 73 1023.0
20260901224603 21 77 3.2 9.7 0.00 0.00 0.00 72 1023.0
20260901223602 22 77 3.2 9.7 0.00 0.00 0.00 71 1022.8
20260901223103 22 77 3.2 9.7 0.00 0.00 0.00 69 1022.8
20260901222602 22 77 3.2 9.7 0.00 0.00 0.00 69 1022.8
20260901222103 22 77 3.2 9.7 0.00 0.00 0.00 69 1022.8
20260901221603 23 77 3.2 9.7 0.00 0.00 0.00 69 1022.8
20260901221103 23 77 3.2 9.7 0.00 0.00 0.00 66 1022.9
20260901220603 23 77 3.2 9.7 0.00 0.00 0.00 66 1022.8
20260901215603 22 77 3.2 9.7 0.00 0.00 0.00 71 1022.9
20260901215103 23 77 3.2 9.7 0.00 0.00 0.00 70 1023.0
20260901214603 23 77 3.2 9.7 0.00 0.00 0.00 68 1023.0
20260901214102 24 77 3.2 9.7 0.00 0.00 0.00 61 1023.1
20260901213602 24 77 3.2 9.7 0.00 0.00 0.00 60 1023.0
20260901212603 24 77 3.2 9.7 0.00 0.00 0.00 59 1023.1
20260901212102 23 77 3.2 9.7 0.00 0.00 0.00 60 1023.1
20260901211603 23 77 3.2 9.7 0.00 0.00 0.00 62 1023.1
20260901211103 23 77 3.2 9.7 0.00 0.00 0.00 63 1023.2
20260901210602 23 77 3.2 9.7 0.00 0.00 0.00 64 1023.2
20260901205103 22 77 3.2 9.7 0.00 0.00 0.00 67 1023.2
20260901204602 22 77 3.2 9.7 0.00 0.00 0.00 67 1023.2
20260901204103 23 77 3.2 9.7 0.00 0.00 0.00 67 1023.3
20260901203102 23 77 3.2 9.7 0.00 0.00 0.00 68 1023.4
20260901202102 23 77 3.2 9.7 0.00 0.00 0.00 66 1023.4
20260901201602 23 77 3.2 9.7 0.00 0.00 0.00 66 1023.4
20260901200603 23 77 3.2 9.7 0.00 0.00 0.00 65 1023.5
20260901195603 23 77 3.2 9.7 0.00 0.00 0.00 65 1023.6
20260901195103 23 77 3.2 9.7 0.00 0.00 0.00 64 1023.6
20260901194603 23 77 3.2 9.7 0.00 0.00 0.00 66 1023.7
20260901194103 23 77 3.2 9.7 0.00 0.00 0.00 66 1023.7
20260901193102 23 77 3.2 9.7 0.00 0.00 0.00 64 1023.8
20260901192602 23 77 3.2 9.7 0.00 0.00 0.00 65 1023.8
20260901192103 23 77 3.2 9.7 0.00 0.00 0.00 63 1024.0
20260901191103 23 77 3.2 9.7 0.00 0.00 0.00 65 1024.0
20260901190103 23 77 3.2 9.7 0.00 0.00 0.00 65 1024.1
20260901185606 23 77 3.2 9.7 0.00 0.00 0.00 65 1024.1